Location: Carthage
(33.8834°N, 106.6595°W)
Time: 12:45:46
(UTC+00:00)

Cosmos 1400 Rocket - Pass Details

Date: 13 February 2026
Orbit: 474 x 509 km, 81.1° (Epoch: 11 March)

Event Time Altitude Azimuth Distance (km) Brightness Sun altitude
Rises 12:24:16 0° 179° (S) 2,583 6.3 -19.0°
Reaches altitude 10° 12:26:23 10° 175° (S) 1,709 5.4 -18.5°
Maximum altitude 12:30:04 58° 96° (E) 594 3.2 -17.8°
Drops below altitude 10° 12:33:49 10° 17° (NNE) 1,733 5.5 -17.0°
Sets 12:35:59 0° 13° (NNE) 2,624 6.4 -16.6°
